Flag for France Weather past 2 weeks in Taiohae, Marquesas Islands, France

Now
90 °F

Scattered clouds.


Feels Like: 98 °F
Forecast: 77 / 83 °F
Wind: 13 mph from Southeast

Location: Atuona

Current Time: Oct 23, 2014 at 1:00:26 PM

Latest Report: Oct 23, 2014 at 11:30 AM


Visibility: 22 mi

Pressure: 29.94 "Hg

Humidity: 58%

Dew point: 73 °F

Location of TaiohaeLocation

Historic Weather in Taiohae — Graph

°F

Taiohae temperature yesterday

Maximum temperature yesterday: 85 °F (at 10:30 AM)
Minimum temperature yesterday: 73 °F (at 5:30 AM)
Average temperature yesterday: 79 °F

Past Weeks' High & Low Weather Summary

 TemperatureHumidityPressure
High92 °F (Oct 11, 10:30 AM)95% (Oct 19, 4:30 AM)30.01 "Hg (Oct 19, 4:30 AM)
Low71 °F (Oct 11, 1:30 AM)44% (Oct 20, 12:30 PM)29.75 "Hg (Oct 10, 3:30 PM)
Average79 °F74%29.90 "Hg
* Reported Oct 8 12:30 PM — Oct 23 10:30 AM, Taiohae, Weather by CustomWeather, © 2014

Note: Actual official high and low records may vary slightly from our data, if they occured in-between our weather recording intervals... More about our weather records

Advertising

Taiohae weather history for previous 24 hours

 ConditionsComfort  
Time TempWeatherWind HumidityBarometerVisibility
10:30 AM
Oct 23
88 °FScattered clouds.15 mph59%29.96 "Hg22 mi
9:30 AM86 °FPartly sunny.20 mph63%29.97 "Hg19 mi
8:30 AM84 °FPartly sunny.15 mph71%29.97 "Hg9 mi
7:30 AM81 °FScattered clouds.13 mph75%29.96 "Hg22 mi
6:30 AM77 °FWarm.6 mph80%29.94 "HgN/A
5:30 AM74 °FPartly sunny.2 mph88%29.92 "Hg19 mi
4:30 AM74 °FMild.3 mph88%29.90 "HgN/A
3:30 AM75 °FMild.2 mph86%29.88 "HgN/A
2:30 AM76 °FMild.3 mph86%29.87 "HgN/A
1:30 AM78 °FWarm.6 mph81%29.89 "HgN/A
12:30 AM79 °FWarm.13 mph80%29.90 "HgN/A
11:30 PM
Oct 22
77 °FWarm.5 mph82%29.93 "HgN/A
10:30 PM78 °FWarm.12 mph78%29.95 "HgN/A
9:30 PM79 °FWarm.12 mph77%29.95 "HgN/A
8:30 PM79 °FWarm.13 mph77%29.94 "HgN/A
7:30 PM78 °FWarm.7 mph81%29.93 "HgN/A
6:30 PM79 °FWarm.6 mph77%29.90 "HgN/A
5:30 PM80 °FWarm.12 mph75%29.88 "HgN/A
4:30 PM80 °FScattered clouds.10 mph73%29.86 "Hg19 mi
3:30 PM82 °FScattered clouds.12 mph71%29.85 "Hg19 mi
2:30 PM83 °FPassing clouds.17 mph67%29.85 "Hg5 mi
1:30 PM84 °FPassing clouds.17 mph68%29.87 "Hg19 mi
Weather by CustomWeather, © 2014

See weather overviewHow to use our weather pages